Hauptseite
METAR-TAF:

METAR-TAF

Flughäfen :

Militärflugplatz Dübendorf

Dübendorf, Schweiz

Breite: 47-23-55N, Länge: 8-38-53E, Höhe: 448 m

Beobachtung

Neuester Wetterbericht von vor 50 Minuten, um 12:50 UTC
Wind 10 kt aus Nordwest, variierte zwischen West und Nord
Temperatur 28°C
Luftfeuchtigkeit 32%
Luftdruck 1017 hPa
Sichtweite 10 km oder mehr
Leicht bewölkt in der Höhe von 3900 ft, Kumulonimbus.

METAR: LSMD 171250Z 32010KT 280V350 9999 FEW039CB 28/10 Q1017 RMK BLU+

Zeit: 15:40 (13:40 UTC)


TAF: fehlend

Wetterbeobachtungen und Prognosen von mehr als 4000 Flughäfen (METAR und TAF Bericht).

Die verfügbaren Stationen werden durch gelbe und rote Markierungen auf der Karte dargestellt.

Führen Sie die Maus auf sie, um den Namen der Station zu sehen.

Darauf klicken, um die Beobachtung von Wetterbeobachtungen und Prognosen zu sehen.

Um die Karte zu ändern : klicken Sie auf den grünen Tasten mit einem schwarzen Kreuz Zum Vergrößern, auf den grünen Button mit einem Gedankenstrich zu verkleinern, oder auf die grünen Pfeile für benachbarte Karten.


METAR-TAF: